Tracking 19575 objects as of 19-Feb-2019
HD Live streaming from Space Station
objects crossing your sky now

COSMOS 1703

Track COSMOS 1703 now!
10-day predictions
COSMOS 1703 is classified as:


NORAD ID: 16262
Int'l Code: 1985-108A
Perigee: 532.7 km
Apogee: 548.2 km
Inclination: 82.5 °
Period: 95.3 minutes
Semi major axis: 6911 km
RCS: 6.9173 m2 (large)
Launch date: November 22, 1985
Source: Commonwealth of Independent States (former USSR) (CIS)
Launch site: PLESETSK MISSILE AND SPACE COMPLEX (PKMTR)
aabbcc
Your satellite tracking list
Your tracking list is empty




NASA's NSSDC Master Catalog

Two Line Element Set (TLE):
1 16262U 85108A   19049.12291284  .00000012  00000-0 -10871-5 0  9997
2 16262  82.4791   9.6259 0011228 343.6344  16.4521 15.10947334811132
Source of the keplerian elements: AFSPC